STARLINK-35349, 65835

Orbit data source: Space-Track

STARLINK-35349, 65835 is a payload satellite owned by SpaceX/Seattle (US) in LEO that was launched on Mon, 29 Sep 2025 UTC via an FALCON 9 launch vehicle from the Air Force Western Test Range (AFWTR). Payload-class satellites include a variety of spacecraft equipped with specific instruments for various scientific and technological missions. These include communications satellites like Starlink; space stations such as the ISS; scientific satellites like the Hubble; Earth observation satellites from companies like Planet Labs, Umbra, and HawkEye 360; GPS; miniature CubeSats for education and research; and military/defense satellites.

Loading next visibility...
Identifier
65835, 2025-221N
Orbit
LEO
Country
Flag of USUS
Related business
Manufacturer
SpaceX/Seattle
Mission
Operational Commercial Communications
Bus & Motor
STARLINK V2MO, Unknown motor
Mass
575 kg wet, ~530 kg dry
Launch date (UTC)
2025-09-29 (9 months ago)
Launch vehicle
FALCON 9
Launch site
Air Force Western Test Range (AFWTR)
Object type
Payload
Rocket body
Debris
Shape & HBR
Box + 2 Pan, 17.7 m
Radar Cross Section
36.964 m², Large (>1 m²)

Expand to show TLE details & history
Last TLE update: 1 day ago

TLE from 1 day ago
0 STARLINK-35349
1 65835U 25221N   26170.74670633  .00015316  00000-0  52823-3 0  9990
2 65835  53.1598 334.6663 0001070  77.5639 282.5481 15.30195614 40353
Epoch: 2026-06-19T17:55Z
TLE epoch observation values (Epoch: 2026-06-19T17:55:15.426Z)
Latitude
-0.00008°
Longitude
157.88071°
Altitude
475.969 km
Speed
7.629 km/s
True Right ascension
22h 18m 39s
True Declination
0° 00' 00"
Sunlit
Object was in partial shadow at epoch
Visualization orbit readout
Latitude
Unknown
Longitude
Unknown
Altitude
Unknown
Speed
Unknown
Apparent Right ascension
Unknown
Apparent Declination
Unknown
Sunlit
N/A
Visualization observer readout
Local Sidereal Time
07:19:12
Azimuth
Unknown
Elevation
Unknown
Doppler factor
Unknown
Orbital elements
Apogee altitude
476.218 km
Perigee altitude
474.751 km
Semi-major axis
6,853.622 km
Eccentricity
0.00011
Inclination
53.1598°
RAAN
334.6663°
Arg. of periapsis
77.5639°
True anomaly
282.53613°
Mean anomaly
282.5481°
Eccentric anomaly
282.54212°
Mean motion
3.82528 °/min
Orbital period
94.11 mins
BSTAR
0.00052823
Loading maneuver chart data...
Computing Atmospheric mass density...
Loading historical data...
Loading historical data...
Loading historical data...
Loading historical data...
Loading historical data...
Loading historical data...
Loading historical data...

Documentation

Showing up to 5 results
|